Weather History for KMFV - February, 2014

Change the Weather History Date:

Thursday, February 13, 2014

  Actual Average (KWAL) Record (KWAL)
Temperature  
Mean Temperature 42 °F 38 °F  
Max Temperature 48 °F 47 °F 64 °F (2008)
Min Temperature 37 °F 30 °F 10 °F (1979)
Degree Days  
Heating Degree Days 22    
Month to date heating degree days  
Since 1 July heating degree days  
Cooling Degree Days 0    
Month to date cooling degree days  
Year to date cooling degree days  
Moisture  
Dew Point 41 °F    
Average Humidity 90    
Maximum Humidity 93    
Minimum Humidity 87    
Precipitation  
Precipitation 0.86 in 0.10 in 1.45 in (2008)
Month to date precipitation 1.22  
Year to date precipitation 4.26  
Sea Level Pressure  
Sea Level Pressure 29.43 in    
Wind  
Wind Speed 18 mph (NNW)    
Max Wind Speed 32 mph    
Max Gust Speed 45 mph    
Visibility 5 miles    
Events Rain , Snow , Thunderstorm    
T = Trace of Precipitation, MM = Missing Value Source: NWS Daily Summary

Daily Weather History Graph

Daily Weather History Graph

Search for Another Location

Airport or City:

Trip Planner

Search our weather history database for the weather conditions in past years. The results will help you decide how hot, cold, wet, or windy it might be!

Date:

Astronomy

Feb. 13, 2014 Rise Set
Actual Time 6:54 AM EST 5:40 PM EST
Civil Twilight 6:27 AM EST 6:07 PM EST
Nautical Twilight 5:57 AM EST 6:37 PM EST
Astronomical Twilight 5:26 AM EST 7:08 PM EST
Moon 4:46 PM EST (2/13) 5:46 AM EST (2/13)
Length of Visible Light 11h 39m
Length of Day
10h 45m
Waxing Gibbous, 98% of the Moon is Illuminated
Feb 13
Waxing Gibbous
Feb 14
Full
Feb 22
Last Quarter
Mar 1
New
Mar 8
First Quarter

Hourly Weather History & Observations

Time (EST) Temp. Windchill Dew Point Humidity Pressure Visibility Wind Dir Wind Speed Gust Speed Precip Events Conditions
12:15 AM 44.6 °F 35.7 °F 41.0 °F 87% 29.93 in 5.0 mi ENE 24.2 mph 33.4 mph 0.02 in Rain Light Rain
12:35 AM 44.6 °F 35.7 °F 41.0 °F 87% 29.91 in 7.0 mi ENE 24.2 mph 31.1 mph 0.06 in Rain Light Rain
12:55 AM 44.6 °F 35.9 °F 42.8 °F 93% 29.89 in 7.0 mi ENE 23.0 mph 31.1 mph 0.07 in Rain Rain
1:15 AM 46.4 °F 37.9 °F 42.8 °F 87% 29.87 in 5.0 mi ENE 25.3 mph 35.7 mph 0.01 in Rain Light Rain
1:35 AM 46.4 °F 37.9 °F 42.8 °F 87% 29.84 in 4.0 mi ENE 25.3 mph 34.5 mph 0.03 in Rain Light Rain
1:55 AM 46.4 °F 38.5 °F 42.8 °F 87% 29.81 in 7.0 mi ENE 21.9 mph 32.2 mph 0.05 in Rain Light Rain
2:15 AM 46.4 °F 37.9 °F 42.8 °F 87% 29.79 in 7.0 mi ENE 25.3 mph 39.1 mph 0.02 in Rain Light Rain
2:36 AM 46.4 °F 38.3 °F 42.8 °F 87% 29.77 in 5.0 mi ENE 23.0 mph 36.8 mph 0.09 in   Overcast
2:55 AM 46.4 °F 38.5 °F 44.6 °F 93% 29.75 in 5.0 mi NE 21.9 mph 35.7 mph 0.12 in Rain Rain
3:15 AM 46.4 °F 38.5 °F 42.8 °F 87% 29.73 in 3.0 mi NE 21.9 mph 32.2 mph 0.07 in Rain Rain
3:35 AM 46.4 °F 38.3 °F 42.8 °F 87% 29.69 in 3.0 mi NE 23.0 mph 36.8 mph 0.11 in   Overcast
3:55 AM 46.4 °F 37.9 °F 42.8 °F 87% 29.64 in 2.0 mi NE 25.3 mph 36.8 mph 0.20 in   Overcast
4:15 AM 46.4 °F 37.7 °F 44.6 °F 93% 29.62 in 3.0 mi NE 26.5 mph 35.7 mph 0.07 in Rain Heavy Rain
4:35 AM 46.4 °F 37.4 °F 44.6 °F 93% 29.58 in 1.8 mi NE 28.8 mph 38.0 mph 0.16 in   Overcast
4:55 AM 46.4 °F 37.0 °F 44.6 °F 93% 29.56 in 1.8 mi NE 31.1 mph 40.3 mph 0.24 in   Overcast
5:15 AM 46.4 °F 36.9 °F 44.6 °F 93% 29.54 in 4.0 mi ENE 32.2 mph 42.6 mph 0.03 in Rain Rain
5:35 AM 46.4 °F 36.9 °F 44.6 °F 93% 29.54 in 7.0 mi ENE 32.2 mph 44.9 mph 0.05 in Rain Light Rain
5:55 AM 46.4 °F 38.1 °F 44.6 °F 93% 29.53 in 3.0 mi NE 24.2 mph 33.4 mph 0.10 in   Overcast
6:15 AM 48.2 °F - 44.6 °F 87% 29.52 in 10.0 mi ENE 20.7 mph 32.2 mph 0.02 in Rain Light Rain
6:37 AM 48.2 °F - 44.6 °F 87% 29.52 in 10.0 mi NNE 11.5 mph 25.3 mph 0.02 in Rain Light Rain
6:55 AM 46.4 °F 40.1 °F 44.6 °F 93% 29.51 in 10.0 mi NNE 15.0 mph 20.7 mph 0.03 in Rain Light Rain
7:15 AM 48.2 °F - 44.6 °F 87% 29.49 in 10.0 mi NNE 9.2 mph 20.7 mph N/A   Drizzle
7:36 AM 48.2 °F - 44.6 °F 87% 29.49 in 10.0 mi NE 16.1 mph 20.7 mph 0.01 in   Overcast
7:55 AM 48.2 °F - 44.6 °F 87% 29.49 in 10.0 mi NE 9.2 mph - 0.01 in   Overcast
8:15 AM 48.2 °F - 44.6 °F 87% 29.47 in 10.0 mi NNE 11.5 mph 18.4 mph N/A   Overcast
8:35 AM 48.2 °F - 44.6 °F 87% 29.46 in 10.0 mi NNE 9.2 mph - N/A   Overcast
8:55 AM 48.2 °F - 44.6 °F 87% 29.46 in 10.0 mi North 3.5 mph - N/A   Overcast
9:15 AM 48.2 °F - 44.6 °F 87% 29.44 in 10.0 mi North 8.1 mph - N/A   Overcast
9:35 AM 46.4 °F 42.9 °F 44.6 °F 93% 29.43 in 10.0 mi North 6.9 mph - N/A   Overcast
9:55 AM 46.4 °F 42.9 °F 44.6 °F 93% 29.42 in 10.0 mi North 6.9 mph - N/A   Overcast
10:15 AM 46.4 °F 41.9 °F 44.6 °F 93% 29.42 in 7.0 mi North 9.2 mph - N/A   Overcast
10:35 AM 46.4 °F 42.4 °F 44.6 °F 93% 29.41 in 4.0 mi North 8.1 mph - N/A   Overcast
10:55 AM 46.4 °F 41.9 °F 44.6 °F 93% 29.40 in 2.0 mi North 9.2 mph - N/A   Overcast
11:15 AM 46.4 °F 41.1 °F 44.6 °F 93% 29.39 in 1.5 mi North 11.5 mph - N/A   Overcast
11:35 AM 48.2 °F - 44.6 °F 87% 29.38 in 1.5 mi North 6.9 mph - N/A   Overcast
11:55 AM 48.2 °F - 44.6 °F 87% 29.36 in 1.5 mi North 5.8 mph - N/A   Overcast
12:15 PM 48.2 °F - 44.6 °F 87% 29.33 in 1.5 mi Calm Calm - N/A   Overcast
12:35 PM 48.2 °F - 46.4 °F 93% 29.33 in 1.8 mi NNW 3.5 mph - N/A   Overcast
12:55 PM 48.2 °F - 46.4 °F 93% 29.31 in 1.2 mi NNW 8.1 mph - N/A   Overcast
1:15 PM 48.2 °F - 44.6 °F 87% 29.30 in 1.2 mi NNW 4.6 mph - N/A   Overcast
1:35 PM 46.4 °F 43.5 °F 44.6 °F 93% 29.28 in 1.2 mi NNW 5.8 mph - N/A   Overcast
1:55 PM 46.4 °F 44.3 °F 44.6 °F 93% 29.25 in 1.2 mi NW 4.6 mph - N/A   Overcast
2:37 PM 46.4 °F 45.2 °F 42.8 °F 87% 29.24 in 0.8 mi NW 3.5 mph - N/A   Overcast
2:55 PM 46.4 °F 43.5 °F 42.8 °F 87% 29.22 in 1.2 mi WNW 5.8 mph - N/A Rain Light Rain
3:15 PM 44.6 °F - 42.8 °F 93% 29.23 in 1.0 mi Calm Calm - N/A   Overcast
3:35 PM 44.6 °F 42.2 °F 41.0 °F 87% 29.23 in 2.0 mi West 4.6 mph - 0.01 in Rain Rain
3:55 PM 42.8 °F 36.6 °F 39.2 °F 87% 29.22 in 1.0 mi WNW 11.5 mph - 0.01 in Rain Heavy Rain
4:15 PM 42.8 °F 37.0 °F 39.2 °F 87% 29.21 in 2.0 mi WNW 10.4 mph - 0.01 in   Overcast
4:35 PM 42.8 °F 36.6 °F 39.2 °F 87% 29.21 in 1.8 mi WNW 11.5 mph - 0.01 in Thunderstorm Overcast
4:55 PM 39.2 °F 32.5 °F 37.4 °F 93% 29.23 in 1.5 mi West 10.4 mph 16.1 mph 0.01 in   Drizzle
5:15 PM 39.2 °F 32.5 °F 37.4 °F 93% 29.23 in 2.0 mi West 10.4 mph - N/A   Drizzle
5:35 PM 39.2 °F 31.2 °F 37.4 °F 93% 29.24 in 2.0 mi West 13.8 mph 19.6 mph N/A   Light Drizzle
5:55 PM 39.2 °F 32.0 °F 37.4 °F 93% 29.24 in 1.8 mi West 11.5 mph 20.7 mph N/A   Drizzle
6:15 PM 39.2 °F 31.2 °F 37.4 °F 93% 29.24 in 1.8 mi West 13.8 mph 18.4 mph N/A   Drizzle
6:37 PM 39.2 °F 32.0 °F 37.4 °F 93% 29.25 in 1.8 mi West 11.5 mph 18.4 mph N/A   Light Drizzle
6:55 PM 39.2 °F 31.2 °F 37.4 °F 93% 29.25 in 1.8 mi West 13.8 mph 23.0 mph N/A   Drizzle
7:17 PM 39.2 °F 32.5 °F 35.6 °F 87% 29.24 in 2.0 mi West 10.4 mph 20.7 mph N/A Rain Light Rain
7:35 PM 39.2 °F 32.0 °F 35.6 °F 87% 29.25 in 1.8 mi West 11.5 mph 20.7 mph N/A Rain Light Rain
7:55 PM 37.4 °F 28.5 °F 35.6 °F 93% 29.25 in 3.0 mi West 15.0 mph 24.2 mph N/A   Overcast
8:15 PM 37.4 °F 28.2 °F 35.6 °F 93% 29.26 in 5.0 mi West 16.1 mph 24.2 mph N/A   Overcast
8:35 PM 37.4 °F 28.2 °F 35.6 °F 93% 29.26 in 1.8 mi West 16.1 mph 23.0 mph 0.01 in Snow Light Snow
8:55 PM 37.4 °F 28.2 °F 33.8 °F 87% 29.27 in 1.8 mi West 16.1 mph 25.3 mph 0.01 in Snow Light Snow
9:15 PM 37.4 °F 29.3 °F 33.8 °F 87% 29.28 in 2.5 mi West 12.7 mph 20.7 mph 0.01 in Snow Light Snow
9:35 PM 37.4 °F 28.2 °F 33.8 °F 87% 29.29 in 5.0 mi West 16.1 mph 20.7 mph 0.01 in Snow Light Snow
9:55 PM 37.4 °F 28.5 °F 35.6 °F 93% 29.30 in 5.0 mi West 15.0 mph 26.5 mph 0.01 in Snow Light Snow
10:15 PM 37.4 °F 28.2 °F 35.6 °F 93% 29.31 in 10.0 mi West 16.1 mph 24.2 mph N/A   Overcast
10:35 PM 37.4 °F 27.8 °F 35.6 °F 93% 29.33 in 10.0 mi West 17.3 mph 29.9 mph N/A   Overcast
10:55 PM 37.4 °F 28.2 °F 35.6 °F 93% 29.34 in 10.0 mi West 16.1 mph 31.1 mph N/A   Overcast
11:15 PM 37.4 °F 27.5 °F 35.6 °F 93% 29.35 in 7.0 mi West 18.4 mph 32.2 mph N/A   Overcast
11:36 PM 37.4 °F 28.2 °F 35.6 °F 93% 29.36 in 7.0 mi West 16.1 mph 26.5 mph N/A   Overcast
11:55 PM 39.2 °F 29.6 °F 35.6 °F 87% 29.36 in 10.0 mi West 19.6 mph 29.9 mph N/A   Overcast